Theta_e
338 337 324 317 301 298 297 307 321 319 320 327 327 324 322 325 321 312 334 341 349 353 359 358 362 361 360 361 361 360 360 362 362 362 362 362 362 360 360 361 359 356 354 353 352 350 349 351 352
325 325 315 307 296 292 295 307 314 318 322 329 328 327 324 322 330 333 335 347 351 356 358 355 362 361 361 360 361 360 360 361 362 362 361 361 361 360 359 359 357 355 353 351 348 348 350 352 355
318 314 309 302 293 294 297 310 317 320 324 326 326 331 328 326 334 335 340 349 354 356 356 354 361 361 361 361 361 361 360 361 361 361 360 361 361 361 359 358 357 353 350 347 347 351 354 356 357
311 310 307 299 295 299 302 308 320 319 319 325 326 327 334 340 335 338 347 352 353 355 354 358 361 361 361 361 361 361 360 360 361 360 360 360 360 359 358 356 355 351 347 347 351 354 357 358 357
307 304 297 295 296 301 305 308 309 309 314 322 323 325 333 337 342 344 348 352 351 352 353 356 360 361 361 361 361 361 360 360 360 361 360 360 359 358 356 355 351 348 347 350 354 356 358 356 354
302 301 293 292 295 303 305 308 307 306 309 321 325 330 332 340 341 344 349 349 352 352 354 355 360 360 360 360 360 360 359 359 359 360 360 360 358 356 355 354 352 350 352 352 355 356 351 350 349
299 295 292 293 294 298 305 305 302 303 303 313 335 329 333 336 340 344 346 350 352 354 354 354 356 358 361 360 359 359 358 358 359 359 358 357 356 355 354 353 352 352 354 354 355 354 348 348 349
300 296 292 291 293 295 305 303 302 302 305 335 336 324 327 333 338 342 346 348 350 351 352 352 354 354 355 355 359 359 358 358 358 358 357 356 355 355 354 352 352 354 355 355 354 351 349 348 349
301 293 289 292 292 295 304 300 303 306 306 316 335 332 336 337 336 342 342 345 347 349 348 350 352 353 350 351 354 357 357 356 357 356 356 352 346 346 347 351 352 354 356 356 354 351 349 349 339
300 292 293 298 298 296 302 298 303 304 303 324 329 328 337 334 334 337 337 338 342 344 348 350 350 350 348 352 348 347 348 348 348 348 348 345 343 343 346 349 354 354 356 356 353 350 350 338 320
297 295 297 300 302 300 300 302 305 302 299 317 321 327 331 332 333 336 336 338 340 344 345 348 349 349 347 346 344 343 343 345 345 345 344 342 343 340 343 341 342 345 349 344 334 330 328 323 317
293 297 299 300 303 299 301 303 303 302 305 309 320 334 331 332 332 334 335 336 337 340 344 346 346 345 343 344 345 344 344 343 341 342 342 340 338 337 339 341 343 341 338 332 329 323 319 317 317
293 296 299 301 300 299 301 301 301 302 306 307 329 334 331 330 332 335 336 337 335 337 340 344 344 343 341 343 342 341 342 342 341 340 339 339 336 335 342 342 342 336 327 326 318 316 316 314 316
297 296 298 298 299 298 298 299 300 303 305 306 331 325 322 325 329 334 335 334 333 335 337 342 342 341 340 341 340 340 342 341 339 337 339 340 338 337 340 337 334 320 317 317 315 315 316 317 316
295 293 295 295 296 297 298 296 297 303 304 303 313 323 325 326 334 333 335 334 334 334 336 338 339 339 338 338 338 338 340 340 338 337 338 341 341 342 332 324 319 317 317 317 314 317 315 319 320
293 290 288 293 297 300 298 291 299 303 300 302 302 304 307 314 330 334 336 337 336 335 333 336 340 337 337 338 335 335 337 337 337 337 339 343 343 335 324 320 318 319 318 315 315 315 316 317 319
289 285 287 292 297 297 295 293 299 301 301 300 301 302 303 303 307 328 335 338 337 335 333 332 334 334 336 337 335 334 335 335 336 339 341 342 339 329 324 320 320 318 319 318 318 317 315 316 318
285 285 287 288 293 295 294 293 297 300 299 299 299 300 301 303 304 308 330 337 339 337 335 333 333 332 335 337 333 333 335 337 338 340 341 338 332 326 323 320 321 319 318 319 316 316 316 317 318
291 289 288 293 296 293 292 292 296 299 298 298 299 300 299 300 305 305 325 335 339 339 335 334 333 335 334 335 332 334 334 338 340 340 339 333 329 326 321 320 322 319 318 319 318 315 313 314 317
291 288 289 292 296 293 292 292 296 297 297 298 299 300 300 298 301 303 310 335 337 338 336 335 335 337 335 336 336 336 338 340 341 338 336 332 327 326 321 322 322 319 319 320 321 319 315 314 315
290 288 290 290 295 293 291 289 292 296 296 298 299 299 300 301 301 302 315 332 337 337 336 336 338 340 338 339 339 336 334 332 334 333 332 329 327 326 322 323 322 320 320 319 319 320 318 313 316
288 294 294 293 289 285 291 286 288 292 294 296 298 302 303 305 309 303 305 331 335 338 340 338 339 341 341 341 340 338 337 336 337 334 332 325 326 325 322 323 321 320 319 318 320 322 321 317 313
292 298 295 294 289 285 287 283 287 290 291 295 299 302 303 305 313 318 313 329 334 339 341 341 340 343 343 342 341 339 337 336 336 330 325 325 323 324 323 324 321 320 319 321 322 322 320 317 314
298 295 292 288 286 282 286 286 285 288 295 298 300 302 303 304 311 318 324 319 334 337 340 341 340 339 341 339 338 338 334 325 325 324 325 323 322 324 322 325 323 322 322 320 321 322 321 318 317
295 289 283 282 281 282 288 284 286 300 301 301 301 302 303 304 307 314 319 325 329 331 333 335 336 337 338 336 335 336 329 324 325 324 325 322 320 320 322 323 323 325 323 323 322 322 320 320 318
291 292 284 278 279 282 290 283 292 304 305 304 303 303 304 304 305 306 314 322 325 327 329 334 334 333 335 334 334 335 330 327 324 323 322 323 325 323 324 325 324 325 324 324 323 322 322 320 319
288 284 289 283 285 282 286 291 299 302 301 301 301 303 303 304 304 305 307 316 322 323 327 329 330 330 330 330 333 331 329 328 326 324 325 324 325 329 326 327 325 327 327 324 323 322 322 319 318
290 292 285 287 278 279 283 285 290 296 298 299 299 300 302 305 305 305 306 307 318 323 323 324 325 325 327 330 329 332 332 329 329 328 327 327 326 327 327 326 325 326 325 325 324 321 323 320 318
288 286 286 288 289 281 279 285 300 297 299 298 299 301 301 302 305 306 307 308 310 318 321 323 324 324 324 326 328 329 329 333 331 330 331 330 330 329 328 327 326 327 327 327 324 323 324 322 320
291 287 286 281 279 281 283 281 301 300 301 302 300 302 303 303 304 304 306 307 310 315 316 318 321 322 324 326 327 326 327 329 331 332 329 328 329 330 329 330 329 329 329 327 326 324 325 322 321
Wind_Speed
5 4 2 4 5 5 3 6 2 8 4 6 8 5 6 4 5 7 7 1 15 19 17 17 19 18 15 14 15 16 16 15 15 13 13 13 13 12 11 9 8 7 6 6 7 7 8 8 8
3 3 4 3 6 2 6 5 6 9 9 7 5 6 3 9 6 3 5 8 17 17 16 15 20 21 19 16 15 15 15 14 13 13 12 12 11 11 10 8 7 6 5 5 5 6 6 7 7
2 1 4 4 4 5 5 6 11 6 4 5 4 5 5 6 1 11 6 16 16 16 16 15 20 20 20 19 17 14 14 14 13 12 12 11 10 8 7 6 5 4 3 3 4 6 7 7 7
3 4 5 5 7 6 5 2 3 5 8 7 8 6 3 5 5 6 15 18 15 12 13 20 22 20 21 20 19 17 15 14 13 12 11 10 9 7 6 5 4 2 2 2 4 6 8 8 8
4 3 3 2 6 6 5 6 8 10 5 6 7 5 5 3 5 15 16 15 16 15 8 13 21 22 20 20 20 18 17 15 14 13 12 10 8 6 5 4 3 2 1 2 4 6 8 8 7
4 4 3 5 5 4 5 4 3 5 6 4 7 4 4 8 5 12 14 14 12 14 12 11 14 17 20 19 17 17 16 15 14 12 11 9 7 6 5 5 4 3 3 2 4 6 7 8 7
7 5 5 4 3 3 4 3 4 7 7 8 7 8 5 3 3 7 12 10 12 13 12 9 8 12 15 16 17 16 15 14 13 11 10 9 8 7 6 5 5 4 4 4 5 5 7 8 10
6 5 3 5 4 5 4 5 4 5 10 3 3 2 2 6 10 3 5 10 7 10 11 9 8 6 8 8 15 16 14 13 12 11 10 9 8 8 7 6 5 5 6 4 4 5 7 8 11
4 5 3 5 3 5 8 5 5 3 6 6 6 4 5 18 18 9 6 6 8 7 7 10 10 9 6 6 9 12 15 13 11 10 10 7 3 4 5 5 6 7 7 5 5 6 8 9 10
5 5 10 7 4 3 6 4 9 6 9 4 1 5 11 18 19 14 12 13 15 15 14 10 13 13 7 7 5 5 6 5 5 5 6 4 4 3 4 5 6 7 7 7 7 8 9 7 4
5 7 5 5 8 4 5 8 3 5 2 8 3 12 5 6 16 16 14 14 18 13 12 15 15 13 10 7 5 3 3 3 3 5 5 4 2 2 2 1 2 2 4 3 4 5 4 5 3
2 4 4 5 5 1 5 5 7 5 12 8 9 11 10 16 13 15 15 16 15 13 12 12 11 12 11 6 6 6 5 4 3 4 5 4 3 3 3 2 3 2 1 4 3 1 3 4 3
5 7 7 9 10 6 4 10 9 8 11 10 4 8 15 15 17 16 13 8 10 12 13 13 11 11 11 11 7 6 6 6 5 5 5 4 4 4 3 3 3 2 1 2 1 2 1 2 4
3 4 9 7 8 5 6 8 7 8 2 7 8 10 7 9 9 11 15 15 16 15 13 13 13 12 10 10 12 10 8 7 6 5 6 7 5 4 4 3 3 2 2 2 2 1 1 2 2
3 6 8 3 3 5 7 6 6 10 2 4 8 10 10 10 9 13 18 20 19 17 14 16 14 10 12 9 9 8 9 8 7 7 7 7 6 5 5 4 4 3 2 3 2 3 2 4 2
4 4 3 5 4 8 6 8 9 11 4 9 9 9 9 11 14 17 19 19 16 13 19 16 15 16 15 13 10 8 8 8 8 6 6 8 7 7 6 5 4 4 3 3 3 3 3 3 3
7 4 5 9 4 4 4 7 7 5 8 10 8 9 9 10 8 12 16 20 19 19 17 17 18 19 16 12 10 10 10 8 8 7 7 8 8 8 7 5 5 6 4 3 3 2 2 2 3
4 4 4 8 5 4 8 8 10 8 3 10 8 8 10 10 13 10 14 18 19 19 19 17 15 18 14 8 7 4 4 7 6 8 8 9 7 9 7 5 6 6 5 4 2 3 2 2 3
4 4 8 14 12 0 9 7 13 9 5 8 10 9 7 11 14 7 10 15 16 17 18 19 19 18 15 12 11 9 9 8 6 6 11 10 8 9 8 5 6 5 5 5 5 4 3 2 1
5 4 12 12 15 6 10 9 10 8 6 5 7 10 9 7 9 5 5 13 16 20 22 20 21 18 18 13 12 7 8 7 8 6 8 11 9 9 8 8 6 6 5 6 4 3 3 2 2
7 5 10 11 18 4 5 4 5 6 3 5 8 5 10 11 12 9 6 13 15 17 19 21 23 22 20 17 10 4 5 3 4 5 7 8 9 9 8 7 6 6 5 5 5 5 4 3 1
7 8 12 12 5 7 3 11 5 5 7 4 12 13 13 14 11 9 9 9 12 18 18 20 24 20 19 18 15 16 16 11 8 10 8 6 8 7 7 7 7 7 4 6 4 4 4 4 4
9 8 8 7 6 1 3 1 9 2 3 8 10 11 12 14 15 16 9 12 14 17 18 19 18 18 19 19 19 15 14 8 5 6 9 8 6 8 9 8 8 7 5 5 7 5 5 2 4
4 2 4 5 3 4 6 7 4 2 3 4 5 11 14 15 16 18 16 7 10 11 15 13 14 6 5 6 7 12 11 8 7 6 8 8 7 6 8 10 8 7 6 6 5 5 6 5 3
7 6 3 5 3 7 5 2 2 6 7 4 8 12 13 15 15 19 21 15 12 9 5 8 9 6 7 5 5 7 7 10 12 12 10 9 6 5 9 7 7 7 7 8 7 7 6 5 4
4 3 5 4 2 5 6 4 3 7 4 6 9 8 13 16 17 17 18 16 13 12 10 7 7 6 6 7 8 6 11 7 5 5 5 4 2 3 4 6 7 6 6 5 6 4 4 5 6
6 5 3 1 4 2 4 2 4 4 8 8 10 12 13 13 14 15 17 15 13 12 10 8 11 7 9 7 5 2 1 6 9 8 7 4 5 2 5 5 6 8 7 6 6 4 5 5 4
4 1 2 3 3 5 5 4 1 5 6 8 9 8 8 7 13 13 13 13 10 9 7 10 9 7 5 5 5 5 3 4 5 10 11 8 4 4 5 5 3 3 5 7 7 5 6 7 2
5 3 4 3 4 7 1 4 1 4 4 2 6 5 4 2 4 5 6 9 8 8 10 9 9 8 5 1 3 3 5 4 2 5 10 11 11 11 10 5 4 5 4 5 6 6 6 8 7
4 4 4 4 4 3 2 6 4 3 4 1 5 7 5 5 5 5 6 6 8 9 7 6 8 9 7 5 2 5 6 8 6 10 11 5 8 5 6 6 6 6 6 6 8 10 10 10 10
Wind_Direction
168 153 126 49 59 60 271 262 247 223 201 190 107 159 183 205 200 216 322 72 136 151 155 162 160 153 153 147 140 134 132 132 131 132 132 129 129 130 127 120 110 96 81 48 22 16 28 34 36
157 129 41 91 90 68 263 256 235 242 83 59 138 228 242 245 221 126 144 158 153 151 153 161 162 155 152 152 145 140 139 137 138 141 142 139 136 135 133 127 119 106 88 65 24 3 8 28 25
201 68 92 100 124 193 227 224 242 324 315 124 278 205 176 215 158 175 187 152 150 154 155 160 162 156 152 153 152 147 143 143 145 147 148 146 141 139 134 126 115 99 78 57 25 353 349 9 27
131 17 30 108 216 249 225 68 243 271 278 186 182 254 190 199 191 143 145 148 145 153 157 162 161 158 156 156 156 154 152 150 151 155 155 154 149 141 137 134 119 104 62 19 3 341 338 354 22
42 56 80 195 235 260 267 279 297 283 272 234 154 272 286 17 72 129 146 152 152 147 155 165 162 159 159 160 160 158 157 157 159 159 162 161 158 155 153 145 148 157 198 310 317 330 336 357 12
44 96 83 232 231 248 282 261 252 287 314 251 153 92 307 25 107 142 150 147 151 145 148 160 169 163 159 161 162 161 161 160 161 164 164 164 163 173 176 174 179 203 236 265 311 335 343 349 354
123 93 210 239 235 280 230 298 315 315 307 250 147 165 134 5 15 157 138 132 142 143 139 150 162 169 165 163 162 165 165 163 163 165 167 168 170 183 191 202 205 221 250 282 316 332 339 346 341
114 100 183 260 232 269 206 335 266 339 316 345 212 133 190 192 123 80 104 120 138 144 144 149 151 163 160 169 167 167 168 168 165 167 174 177 182 195 200 211 240 245 260 285 314 330 335 350 355
133 70 215 238 219 241 302 19 298 294 309 240 146 217 197 139 133 118 121 129 147 160 151 153 165 167 151 150 172 172 173 173 169 173 179 183 188 211 222 222 241 261 278 310 324 328 330 10 7
128 150 219 206 209 253 288 320 296 335 340 349 357 41 149 145 141 154 175 180 172 181 174 175 173 179 164 164 159 148 170 159 165 173 184 186 194 210 228 242 257 265 289 324 323 324 333 33 10
186 213 208 254 242 223 267 295 252 293 324 281 251 138 152 172 157 161 186 211 179 185 178 183 179 176 170 160 148 148 153 154 165 184 186 187 176 239 251 268 292 287 307 319 325 343 13 356 48
254 244 210 266 248 166 245 294 296 261 254 254 275 148 152 148 167 182 188 199 185 179 195 184 185 172 167 149 166 166 164 167 170 190 190 186 191 222 245 225 233 262 293 289 295 351 12 347 84
188 252 267 252 283 243 258 255 232 259 258 256 181 182 172 174 183 184 193 203 197 180 196 187 182 181 175 162 165 168 177 178 178 183 198 189 201 214 228 233 203 221 254 239 186 64 42 14 55
229 246 275 274 263 237 216 256 156 264 238 227 173 213 215 210 238 168 178 192 192 191 187 189 186 186 184 179 177 181 181 183 180 185 198 198 196 211 218 208 201 194 175 170 113 180 156 34 61
266 315 326 238 270 268 167 296 219 245 308 205 220 229 227 199 170 189 197 196 188 190 187 185 182 179 187 193 198 188 190 178 187 194 194 196 193 212 193 160 172 174 158 139 143 67 72 75 53
3 52 353 289 331 270 151 270 274 282 309 280 228 227 242 254 200 201 193 206 199 179 191 174 182 189 187 189 188 191 194 183 187 189 186 190 191 186 160 150 173 162 143 153 101 88 66 73 84
3 255 297 315 230 260 152 292 276 305 292 278 254 244 242 243 245 228 208 194 188 191 185 183 183 193 194 191 191 190 185 190 191 179 182 187 179 173 163 165 158 152 144 125 132 78 123 130 107
235 300 280 270 291 348 311 278 286 283 308 282 285 246 250 235 234 225 208 195 192 189 189 186 185 187 190 194 179 192 190 199 189 186 182 178 174 172 154 161 157 153 130 134 128 126 65 124 147
214 233 269 278 272 344 270 272 282 293 311 307 306 307 266 243 252 229 183 206 197 189 183 184 184 190 181 188 187 188 192 193 195 205 173 169 167 166 156 164 144 150 145 162 159 125 114 41 140
207 247 270 291 267 142 276 263 267 278 255 242 287 307 303 291 289 279 228 197 187 187 191 187 191 187 192 189 188 192 185 209 189 198 182 161 168 165 162 158 163 161 138 155 168 142 129 142 159
239 206 259 230 289 272 248 273 249 280 256 317 306 325 356 336 314 310 267 199 187 192 193 190 192 191 193 191 174 110 88 54 137 188 184 162 168 168 160 162 156 158 148 172 170 160 149 142 55
263 222 247 266 273 263 126 272 271 250 294 344 18 23 356 351 341 313 260 213 200 200 194 206 191 192 191 181 176 180 187 183 196 180 177 152 159 166 156 158 165 163 160 168 167 165 167 144 152
228 265 246 243 229 207 276 39 275 218 293 32 9 10 0 356 343 345 315 225 208 202 199 197 206 193 188 184 185 179 187 182 156 158 159 166 165 169 167 167 167 166 166 166 165 171 155 169 142
280 281 12 44 114 246 215 183 251 297 318 57 8 12 3 4 354 354 356 295 238 216 205 201 183 180 197 187 186 178 160 155 140 147 172 180 174 174 182 175 174 167 162 167 172 164 168 157 124
42 58 328 314 327 246 324 74 328 69 34 33 39 23 12 0 7 8 8 12 29 50 59 97 114 137 128 160 154 163 151 152 165 165 174 176 183 188 190 164 166 176 178 173 167 163 163 149 140
13 88 116 268 269 276 324 256 49 74 70 35 44 39 38 22 12 7 4 13 31 43 46 75 99 96 137 149 162 174 164 163 150 144 125 121 130 302 278 202 177 172 165 162 163 148 163 152 150
327 56 149 175 359 16 262 107 101 71 33 23 12 34 26 19 15 8 6 4 27 37 50 58 60 46 36 20 327 210 137 166 139 140 114 125 105 26 300 260 216 160 171 175 162 152 154 145 138
90 278 63 39 356 304 313 334 103 351 19 360 359 4 352 3 27 10 0 358 355 37 52 62 69 74 60 46 7 347 16 224 165 135 131 115 90 89 324 286 296 304 144 156 168 160 146 145 170
3 35 53 98 178 200 201 270 327 291 297 357 297 281 268 286 51 58 13 343 326 22 35 48 55 66 73 280 280 213 260 244 232 201 163 177 174 184 165 252 235 213 185 183 189 165 167 147 154
140 153 117 145 231 261 199 268 223 224 258 230 282 283 290 305 328 1 10 359 355 356 22 31 27 35 28 16 299 232 226 229 217 208 239 243 190 174 151 161 226 221 199 190 199 194 167 178 173